RH
35 35 35 34 34 34 34 33 33 33 32 34 37 41 41 41 39 33 27 25 22 21 21 21 23 24 24 24 23 23 22 21 24 29 30 31 33 35 35 34 31 29 27 25 26 30 32 32 31 27 20 15 14 16 21 27 30 31 31 31 28 27 28 29 29 30 30 30 27 20 16 15 15 17
33 34 34 34 34 34 33 33 33 32 32 33 38 43 44 47 49 42 35 29 23 22 23 22 23 26 26 26 25 25 24 22 25 30 33 34 35 35 35 34 32 31 29 27 26 27 26 26 26 22 18 15 14 16 22 28 31 32 33 32 31 30 30 30 30 30 29 30 29 23 18 14 13 14
27 30 32 33 34 33 33 33 32 32 32 33 38 44 45 48 51 50 48 39 26 24 26 24 25 27 28 28 28 28 27 26 27 30 33 36 37 37 35 32 32 32 31 30 28 25 24 24 23 19 17 16 15 19 27 32 33 33 33 33 32 32 32 31 31 31 31 31 29 27 23 19 14 12
21 23 26 29 31 33 34 33 33 33 32 32 36 43 47 49 51 53 57 49 30 25 29 28 29 30 30 31 31 31 31 30 31 32 33 37 39 39 37 33 31 31 30 30 29 27 26 25 23 20 18 17 16 19 25 31 34 34 34 33 32 32 32 32 31 31 31 30 30 29 28 25 19 12
19 19 20 21 24 29 32 34 35 34 34 34 35 40 46 53 54 54 59 55 37 29 31 32 33 34 33 33 33 33 34 35 35 34 34 38 40 39 38 36 33 31 29 27 26 26 26 25 23 21 18 18 18 18 22 28 31 32 34 34 33 33 33 33 32 31 29 27 25 24 24 24 19 12
22 21 20 19 19 23 28 33 36 37 37 37 37 38 42 50 57 56 60 61 49 38 36 37 38 39 37 36 35 36 37 38 39 37 35 38 41 40 39 37 34 32 30 27 25 24 24 24 23 21 20 19 20 20 23 28 31 31 33 34 32 31 30 29 27 26 23 19 16 15 15 14 12 11
25 24 23 21 19 21 24 28 33 38 39 39 40 39 39 46 55 57 60 64 58 47 43 42 42 43 43 41 38 39 40 40 40 39 37 39 42 43 42 39 36 34 32 30 27 24 23 22 21 20 20 20 20 20 21 24 26 26 26 26 24 23 21 19 18 16 15 13 12 11 11 11 11 11
28 28 27 25 23 25 29 30 31 35 39 41 41 41 40 43 52 58 61 64 63 56 50 46 43 46 49 46 43 42 43 42 43 42 41 41 42 44 44 41 38 36 35 33 28 25 23 21 20 20 20 20 20 20 19 19 18 18 17 17 16 16 16 16 15 15 14 13 12 11 11 11 11 11
30 30 30 29 30 36 39 38 38 38 40 41 41 41 41 42 47 56 61 63 64 61 54 48 46 48 52 51 47 45 43 44 48 48 45 44 43 44 45 43 41 40 38 35 30 26 23 21 20 20 21 21 21 20 19 18 17 17 16 16 16 16 17 16 16 16 14 13 12 11 10 10 11 11
33 32 31 29 32 40 42 40 40 40 41 42 41 39 40 40 43 51 60 63 65 63 56 51 49 49 53 56 53 50 46 45 50 53 50 48 46 45 46 45 44 44 41 37 32 27 24 21 21 22 22 23 22 21 20 20 19 18 18 18 18 17 17 17 16 15 14 13 12 11 10 11 11 12
37 35 34 32 32 37 41 41 40 40 40 42 43 40 38 40 40 45 55 63 65 64 59 54 52 50 54 58 56 55 51 47 51 57 55 53 51 49 50 50 49 49 44 38 33 29 26 24 24 25 25 25 24 23 22 22 21 20 20 19 19 18 17 17 16 15 14 12 12 12 11 11 13 14
43 41 39 38 35 34 37 40 40 40 41 42 43 41 37 38 39 40 50 61 63 63 60 56 53 52 55 58 57 57 56 48 51 60 61 59 58 56 55 55 55 53 48 42 37 32 30 29 29 28 28 26 26 25 24 23 22 21 20 19 19 17 17 16 15 14 13 12 13 12 12 16 20 20
48 47 45 44 41 37 35 37 38 41 43 42 43 42 37 38 38 38 49 61 63 63 61 57 55 53 54 57 57 57 56 49 51 61 61 59 60 60 58 57 56 55 51 45 38 34 33 33 32 31 30 28 27 25 24 23 22 20 19 18 18 17 15 15 14 14 14 14 15 16 18 25 28 25
51 51 50 48 45 42 39 38 38 41 44 43 42 42 39 38 37 39 53 64 65 64 62 56 55 53 52 55 56 56 55 49 50 57 58 56 59 62 60 59 57 55 52 45 39 36 37 36 34 33 30 28 26 25 23 22 20 19 18 17 17 16 15 15 14 15 16 17 20 24 29 33 33 31
54 54 54 51 48 46 45 43 41 40 41 43 43 42 41 40 37 42 57 64 65 66 62 56 55 52 50 54 57 56 52 46 47 54 55 55 59 61 61 59 58 56 51 45 40 39 39 38 35 33 30 27 26 24 22 21 20 19 19 18 18 17 17 18 19 22 25 27 30 34 36 37 37 37
64 62 61 58 54 51 49 49 50 46 41 43 43 42 44 45 40 46 59 63 64 67 62 56 56 51 49 55 58 55 49 44 47 53 54 54 57 60 61 61 60 58 52 45 43 42 40 38 36 33 30 28 26 24 22 22 22 21 21 22 23 25 27 30 34 37 37 38 38 38 37 37 38 38
72 71 69 68 66 61 57 55 54 52 48 47 46 43 47 50 45 49 60 62 62 66 62 57 56 53 51 56 58 54 48 46 50 53 52 52 57 60 62 62 61 58 52 46 44 44 42 39 37 34 31 30 29 27 27 29 28 29 32 35 37 39 40 40 40 39 37 36 35 35 37 40 41 41
73 74 73 73 72 71 69 63 59 58 57 55 52 47 49 51 48 51 61 62 61 66 64 58 57 54 51 55 57 52 47 48 51 51 50 52 57 63 65 63 60 56 51 48 48 47 45 42 40 37 34 34 34 33 37 40 39 38 42 43 42 41 40 36 33 29 27 27 28 32 40 46 47 46
72 71 72 73 73 74 73 68 64 65 65 63 59 55 53 53 52 55 61 61 61 64 62 59 58 55 51 55 57 51 47 48 51 51 51 52 58 64 65 62 59 56 53 52 52 50 47 48 46 40 38 39 40 41 44 44 42 40 40 40 39 38 35 32 29 26 23 25 31 38 47 52 52 50
69 68 70 71 72 74 74 71 70 73 73 69 66 62 58 56 57 59 60 61 61 63 60 58 59 56 52 56 57 50 47 51 54 54 52 52 59 66 67 64 62 60 57 55 55 50 47 50 50 44 42 44 45 46 46 45 44 41 40 39 38 37 37 38 39 37 34 36 43 49 53 55 54 52
69 67 68 71 72 74 75 74 74 76 77 74 70 66 62 60 60 60 61 61 62 63 61 59 59 56 53 57 56 49 50 55 56 55 52 53 62 70 71 69 66 62 58 57 55 49 47 52 52 46 47 49 47 47 46 44 44 43 43 44 43 42 44 48 50 50 49 51 54 56 57 57 54 52
71 68 69 71 73 75 79 80 80 80 81 79 74 68 64 62 60 60 62 62 62 63 63 60 58 55 54 57 57 55 59 61 57 53 51 55 65 73 73 70 67 63 60 59 55 51 51 56 54 49 50 50 47 47 46 44 44 46 47 49 49 49 50 50 50 51 52 54 55 57 57 56 53 51
77 73 72 73 74 77 81 86 87 87 87 83 76 69 65 62 61 61 63 64 62 62 63 61 58 55 53 56 59 62 67 66 59 54 52 57 68 74 73 70 67 65 63 61 59 57 58 58 54 50 51 50 48 48 46 46 48 51 53 54 54 54 54 54 53 52 52 51 50 50 48 45 44 46
84 81 77 75 75 77 81 86 89 92 92 86 76 70 65 62 62 64 64 63 61 61 62 62 59 53 51 55 63 69 71 68 63 60 58 63 73 77 73 71 70 67 66 64 63 62 60 57 53 52 52 51 50 49 48 50 54 56 59 59 57 57 56 56 55 54 52 50 47 45 42 37 37 42
88 84 80 76 76 79 83 87 91 95 95 86 75 69 66 65 66 66 63 61 60 60 62 61 57 53 54 61 70 74 71 67 65 63 63 69 76 76 73 73 72 71 71 69 66 64 61 57 54 53 52 51 50 49 49 54 58 60 60 59 56 55 55 53 52 51 50 49 46 44 40 36 39 43
87 84 83 80 80 83 87 89 95 99 95 85 75 70 69 70 69 66 62 61 61 60 60 58 56 57 61 67 73 74 69 66 65 63 66 73 75 73 73 75 74 74 75 72 68 65 61 56 55 54 52 51 51 51 53 57 60 60 59 56 54 53 52 51 50 49 47 44 41 40 37 36 40 42
87 84 87 87 86 89 91 93 99 101 94 84 77 73 73 72 68 65 64 64 61 59 59 59 59 60 63 69 74 74 69 65 65 64 69 74 73 71 75 78 76 75 76 73 69 66 61 57 56 55 53 52 53 55 58 60 60 59 57 55 53 51 49 48 48 46 44 40 36 36 37 39 40 40
91 85 89 91 91 92 92 95 101 100 91 84 80 78 78 74 68 65 65 64 61 59 60 60 60 59 62 69 75 74 69 66 66 67 71 76 74 73 78 81 78 77 78 74 70 66 61 58 58 56 54 53 55 59 61 61 60 58 56 53 51 48 48 47 44 42 41 39 35 33 36 39 40 42
93 90 90 92 93 93 93 98 102 98 88 83 81 81 81 75 67 64 64 63 62 61 60 60 58 58 61 68 74 74 70 68 69 69 73 76 75 75 80 82 80 80 78 73 68 64 62 60 59 57 54 53 57 61 63 62 60 57 54 52 49 47 46 45 43 42 41 40 38 34 34 35 36 41
93 94 95 96 97 95 95 100 100 93 85 82 80 80 80 73 65 63 63 62 61 60 59 58 58 59 63 70 76 76 72 70 71 72 76 78 76 77 82 84 83 80 77 71 66 64 63 62 61 57 53 53 57 63 64 63 60 57 53 51 49 48 47 47 46 45 44 44 43 41 40 39 40 44
95 98 98 99 98 96 96 99 96 87 83 81 80 79 78 71 64 63 63 60 58 58 58 59 60 62 68 75 79 77 73 72 74 76 79 80 78 78 83 85 84 80 74 68 66 65 65 64 60 55 53 54 58 63 65 63 59 55 53 51 50 51 52 52 50 49 48 48 47 45 45 45 47 49
100 101 100 98 96 94 95 96 91 84 81 81 81 81 77 69 64 65 66 63 60 60 62 63 63 65 72 79 82 79 76 77 79 80 81 81 78 78 83 85 84 79 72 69 69 69 67 64 58 54 56 58 59 61 63 61 57 54 54 53 52 53 54 51 51 53 53 52 51 51 50 51 53 55
101 100 99 98 95 94 93 90 85 82 81 80 80 81 77 70 66 68 69 67 65 66 67 67 65 68 76 83 84 82 80 81 82 83 83 80 78 79 84 85 82 76 72 71 73 73 68 62 56 56 59 61 61 60 59 58 56 55 56 56 55 55 55 53 52 54 55 54 55 56 56 56 57 57
101 100 99 97 92 89 87 84 82 81 81 81 82 82 78 72 69 71 72 71 71 71 72 71 71 75 82 87 86 85 85 85 84 84 82 80 79 83 86 85 80 76 74 76 77 75 68 60 55 58 62 63 62 60 56 55 56 58 60 61 59 58 59 60 58 56 55 56 56 57 57 58 58 58
98 98 96 93 88 85 84 83 82 82 82 82 82 82 79 76 75 77 77 77 76 76 75 74 77 82 89 92 91 90 89 88 86 84 81 80 82 85 86 84 81 78 79 80 80 75 68 60 57 60 64 64 62 59 56 55 56 59 63 65 65 63 64 64 61 57 55 56 56 55 56 58 59 60
90 90 88 86 85 84 84 83 82 82 82 82 81 81 81 81 81 80 80 80 79 79 79 79 83 90 95 97 95 93 91 89 86 82 80 80 84 87 87 85 83 82 82 83 80 74 67 62 61 63 66 65 62 59 57 55 55 58 64 68 68 66 64 62 58 55 54 55 55 56 56 58 61 63
86 84 83 83 84 83 83 83 82 82 81 80 80 80 80 81 82 82 82 81 81 81 82 84 88 94 98 98 96 94 91 88 84 81 80 82 86 90 91 89 87 85 84 83 81 75 68 64 64 65 66 66 64 61 58 56 56 57 62 68 68 64 61 59 56 54 54 54 55 57 58 59 63 66
84 83 83 83 83 82 82 82 82 82 82 81 81 81 80 80 81 82 82 82 82 82 84 87 92 98 100 99 96 93 90 87 84 82 83 87 92 95 94 91 89 87 85 84 81 75 69 66 66 66 67 67 66 62 58 57 57 57 60 66 68 65 63 60 57 56 58 56 55 56 58 60 65 68
83 83 83 83 83 83 82 82 82 82 82 82 82 82 82 81 81 80 81 82 81 83 86 91 96 100 100 98 94 90 87 86 86 88 90 94 98 99 96 93 91 89 86 84 82 78 72 69 66 66 68 71 71 66 61 58 58 58 61 66 69 69 68 64 58 58 61 60 58 58 59 60 67 72
83 82 82 81 81 81 81 81 81 82 82 82 81 80 81 82 81 80 81 82 82 84 89 95 99 100 98 94 91 87 85 86 90 93 96 98 100 99 97 94 93 91 87 84 83 79 75 70 67 67 71 75 75 70 65 60 59 59 62 67 71 71 69 66 60 59 62 62 61 60 59 60 66 73
84 84 83 82 81 80 80 80 81 82 82 82 80 79 79 81 82 80 80 81 84 88 94 98 99 98 94 90 87 86 86 89 93 96 97 99 100 100 97 95 94 93 90 88 84 80 75 72 72 74 76 77 76 73 68 63 61 61 63 68 70 69 67 65 61 60 62 64 63 62 61 61 65 71
85 85 86 85 84 83 82 82 82 82 82 82 81 81 80 81 83 81 80 83 88 92 96 99 98 94 91 87 86 87 89 94 98 99 99 100 101 100 98 95 93 93 93 91 87 83 80 80 80 80 80 78 76 73 69 65 64 64 66 69 69 66 64 64 63 61 63 65 66 65 64 62 64 68
85 85 86 87 86 85 85 84 84 83 83 83 83 82 81 82 83 83 83 87 92 95 97 97 95 91 88 86 87 90 93 97 100 101 100 100 100 99 98 97 95 95 96 94 90 88 88 88 85 82 80 79 77 73 69 67 68 68 67 67 67 65 63 63 63 63 64 66 68 69 68 66 67 69
86 87 88 88 87 86 86 86 85 85 84 84 84 84 84 84 84 85 87 92 95 96 96 95 91 88 87 87 89 93 97 100 101 100 99 100 100 99 99 99 99 100 100 97 94 92 91 89 87 84 81 78 76 74 71 70 70 69 68 66 65 63 63 63 63 65 65 66 69 70 69 68 70 70
88 89 90 90 89 88 89 89 88 88 87 86 85 86 87 87 88 89 92 95 97 96 95 92 90 88 89 91 94 98 100 101 101 100 99 99 99 100 100 100 100 101 101 100 99 96 92 88 86 85 82 79 77 76 74 73 72 70 69 66 64 64 63 63 63 65 66 67 68 70 69 70 71 70